TUBIN
1 48900U 21059X   25275.68663806  .00136578  00000-0  94402-3 0  9994
2 48900  97.6759  95.2922 0002411 170.5960 189.5349 15.74126501238050
LEDSAT
1 49069U 21073D   25275.51541412  .00736698  23531-3  18681-2 0  9997
2 49069  97.3698   3.6331 0005477 298.6500  61.4224 15.95490444229480
CUTE
1 49263U 21088D   25275.69546762  .00039421  00000-0  63672-3 0  9995
2 49263  97.4415 355.6697 0006586 161.4819 198.6674 15.52753581222258
TeikyoSat 4
1 49396U 21102B   25275.68753733  .00005242  00000-0  34234-3 0  9992
2 49396  97.4016 309.9348 0014338  98.0167 262.2690 15.08165941213896
Z-Sat
1 49399U 21102E   25275.68690486  .00010182  00000-0  53895-3 0  9993
2 49399  97.3701 313.7705 0019283  67.5086 292.8186 15.15457316214409
KOSEN 1
1 49402U 21102H   25275.66909032  .00017538  00000-0  76765-3 0  9999
2 49402  97.3598 318.0750 0016201  41.3917 318.8543 15.21983331214781
HO-113
1 50466U 21131B   25275.75747539  .00001848  00000-0  58905-3 0  9998
2 50466  98.5074   4.5378 0004958 140.6587 219.4963 14.40965797198037
SNUGLITE 2
1 52899U 22065F   25275.63798613  .00003799  00000-0  74103-3 0  9998
2 52899  98.1851  56.6180 0008692 110.2067 250.0071 14.63532938173319
UmKA 1 (RS40S)
1 57172U 23091G   25275.72345470  .00014252  00000-0  72690-3 0  9991
2 57172  97.5459 330.5233 0012485 298.4969  61.5006 15.16785343124928
CubeBel-2 (EU11S)
1 57175U 23091K   25275.68735380  .00023037  00000-0  10186-2 0  9994
2 57175  97.5459 332.3974 0010021 304.1357  55.8928 15.21657505125040
ENSO
1 58470U 23185J   25274.64559369  .00294403  00000-0  17996-2 0  9996
2 58470  97.3585 354.6123 0002855 341.7791  18.3372 15.76527964102851
SONATE-2
1 59112U 24043Q   25275.62095748  .00045163  00000-0  11184-2 0  9999
2 59112  97.5270  49.5194 0010605  64.9483 295.2862 15.40228992 88011
MO-122
1 60209U 24125G   25275.53551321  .00047139  00000-0  11397-2 0  9994
2 60209  97.2650 126.1118 0018576  83.9616 276.3747 15.40822631 69629
GRBBeta
1 60237U 24128C   25275.69105477  .00012313  00000-0  87444-3 0  9995
2 60237  61.9918  37.9105 0056859  81.8807 278.8730 15.03770848 67500
Curium One
1 60242U 24128H   25275.64529340  .00021342  00000-0  13730-2 0  9993
2 60242  61.9814  34.4695 0056627  78.2639 282.4800 15.07095291 67564
ROBUSTA-3A
1 60243U 24128J   25275.68660925  .00021411  00000-0  14000-2 0  9991
2 60243  61.9889  35.5646 0056286  75.9068 284.8272 15.06516305 67557
CatSat
1 60246U 24125J   25275.53070293  .00050392  00000-0  14629-2 0  9995
2 60246  97.2460 123.9560 0039913  45.9475 314.5043 15.34529398 67588
HYPERVIEW-1G (RS66S)
1 61772U 24199AP  25275.72372767  .00060454  00000-0  14510-2 0  9992
2 61772  97.3332 144.6065 0013610 131.5612 228.6804 15.41063581 94656
AO-123
1 61781U 24199AY  25275.75655902  .00017009  00000-0  58390-3 0  9993
2 61781  97.3357 142.0483 0016293 143.1178 217.1187 15.30079059 94488
ZIMSAT 2
1 61783U 24199BA  25275.75531032  .00132167  00000-0  21700-2 0  9999
2 61783  97.3276 146.4622 0012638 122.9615 237.2854 15.51859124 97932
HADES-R (SO-124)
1 62690U 25009CK  25275.21278676  .00130433  00000-0  32341-2 0  9998
2 62690  97.3992 356.2070 0001357  53.3922 306.7448 15.39868916 39715
HYDRA-T
1 62692U 25009CM  25275.17085903  .00135404  00000-0  32961-2 0  9995
2 62692  97.3999 356.2623 0001085  35.1798 324.9519 15.40410289 39714
JINJUSat 1B
1 63210U 25052A   25275.66228142  .00031980  00000-0  13355-2 0  9998
2 63210  97.4236 168.4174 0001729 294.3407  65.7649 15.23573744 30757
NUSHSAT 1
1 63211U 25052B   25275.69523367  .00036735  00000-0  15059-2 0  9995
2 63211  97.4232 168.4983 0001637 311.1848  48.9248 15.24167018 30760
TEVEL2-4
1 63213U 25052D   25275.67013120  .00034477  00000-0  14335-2 0  9993
2 63213  97.4149 168.1622 0001811 353.4333   6.6880 15.23705166 30751
TEVEL2-5
1 63214U 25052E   25275.67290838  .00033679  00000-0  14023-2 0  9994
2 63214  97.4156 168.1593 0001768 354.0174   6.1041 15.23660790 30755
TEVEL2-6
1 63215U 25052F   25275.67808860  .00034063  00000-0  14199-2 0  9997
2 63215  97.4150 168.1556 0001875 354.0437   6.0778 15.23621335 30758
TEVEL2-1
1 63217U 25052H   25275.70706573  .00033543  00000-0  14093-2 0  9996
2 63217  97.4126 168.0514 0002644   5.7907 354.3360 15.23354256 30754
TEVEL2-3
1 63218U 25052J   25275.64132828  .00034014  00000-0  14287-2 0  9995
2 63218  97.4129 167.9894 0002760   7.2595 352.8682 15.23360957 30740
TEVEL2-2
1 63219U 25052K   25275.64212808  .00033886  00000-0  14240-2 0  9998
2 63219  97.4127 167.9872 0002723   6.4223 353.7048 15.23346968 30745
TEVEL2-9
1 63237U 25052AD  25275.67088317  .00031889  00000-0  13934-2 0  9997
2 63237  97.4187 167.8133 0006941 351.3964   8.7152 15.22014945 30727
TEVEL2-7
1 63238U 25052AE  25275.67895485  .00031456  00000-0  13786-2 0  9995
2 63238  97.4193 167.8075 0007016 351.4493   8.6622 15.21914736 30729
TEVEL2-8
1 63239U 25052AF  25275.68329676  .00031211  00000-0  13691-2 0  9995
2 63239  97.4192 167.7995 0007024 352.0084   8.1039 15.21885783 30727
HYDRA-W
1 63490U 25052BL  25275.67854274  .00090088  00000-0  29899-2 0  9994
2 63490  97.4130 169.0311 0008335 345.9094  14.1913 15.30842820 30816
HADES-ICM (SO-125)
1 63492U 25052BN  25275.67474891  .00084290  00000-0  28829-2 0  9999
2 63492  97.4135 168.9000 0008990 348.6860  11.4177 15.29888186 30808
